• In Austria
  • List of Countries
  • For 7 days
  • Water Temperature
  • Satellite Maps
  • Weather Map
  • News
  • Weather Widgets
  • user-avatar
    Login

    Hourly Weather Gjirokaster

    Today, 27 May, Sunday

    Time Temperature Precipitation Wind Pressure Humidity
    00:00 +13°C° 0 mm 2 mps 654 mmHg 73%
    01:00 +12°C° 0 mm 2 mps 654 mmHg 73%
    02:00 +12°C° 0 mm 2 mps 654 mmHg 73%
    03:00 +12°C° 0 mm 2 mps 653 mmHg 73%
    04:00 +12°C° 0 mm 2 mps 653 mmHg 73%
    05:00 +13°C° 0 mm 2 mps 654 mmHg 70%
    06:00 +15°C° 0 mm 1 mps 654 mmHg 67%
    07:00 +18°C° 0 mm 1 mps 654 mmHg 64%
    08:00 +19°C° 0 mm 1 mps 655 mmHg 59%
    09:00 +21°C° 0 mm 1 mps 655 mmHg 53%
    10:00 +22°C° 0 mm 1 mps 656 mmHg 47%
    11:00 +23°C° 0 mm 2 mps 656 mmHg 46%
    12:00 +23°C° 0 mm 2 mps 656 mmHg 45%
    13:00 +22°C° 0 mm 3 mps 656 mmHg 44%
    14:00 +22°C° 0 mm 3 mps 655 mmHg 48%
    15:00 +21°C° 0 mm 3 mps 655 mmHg 52%
    16:00 +21°C° 0 mm 3 mps 655 mmHg 56%
    17:00 +19°C° 0.1 mm 3 mps 654 mmHg 63%
    18:00 +17°C° 0.1 mm 2 mps 654 mmHg 70%
    19:00 +16°C° 0.1 mm 2 mps 654 mmHg 76%
    20:00 +15°C° 0 mm 2 mps 654 mmHg 77%
    21:00 +14°C° 0 mm 2 mps 654 mmHg 78%
    22:00 +14°C° 0 mm 1 mps 654 mmHg 79%
    23:00 +14°C° 0 mm 1 mps 654 mmHg 78%

    Tomorrow, 28 May, Monday

    Time Temperature Precipitation Wind Pressure Humidity
    00:00 +13°C° 0 mm 1 mps 654 mmHg 78%
    01:00 +13°C° 0 mm 1 mps 654 mmHg 77%
    02:00 +13°C° 0 mm 1 mps 654 mmHg 77%
    03:00 +13°C° 0 mm 1 mps 654 mmHg 77%
    04:00 +12°C° 0 mm 1 mps 654 mmHg 77%
    05:00 +14°C° 0 mm 1 mps 654 mmHg 73%
    06:00 +16°C° 0 mm 1 mps 654 mmHg 70%
    07:00 +18°C° 0 mm 1 mps 655 mmHg 66%
    08:00 +19°C° 0 mm 1 mps 655 mmHg 62%
    09:00 +21°C° 0 mm 1 mps 656 mmHg 57%
    10:00 +21°C° 0 mm 2 mps 656 mmHg 53%
    11:00 +21°C° 0.2 mm 2 mps 656 mmHg 53%
    12:00 +23°C° 0.2 mm 2 mps 656 mmHg 54%
    13:00 +22°C° 0.2 mm 3 mps 656 mmHg 54%
    14:00 +21°C° 0.7 mm 3 mps 655 mmHg 57%
    15:00 +21°C° 0.7 mm 3 mps 655 mmHg 60%
    16:00 +20°C° 0.7 mm 3 mps 654 mmHg 63%
    17:00 +19°C° 0.3 mm 3 mps 654 mmHg 69%
    18:00 +17°C° 0.3 mm 2 mps 654 mmHg 75%
    19:00 +16°C° 0.3 mm 2 mps 654 mmHg 80%
    20:00 +15°C° 0.1 mm 2 mps 654 mmHg 81%
    21:00 +15°C° 0.1 mm 2 mps 654 mmHg 82%
    22:00 +14°C° 0.1 mm 2 mps 654 mmHg 82%
    23:00 +14°C° 0 mm 2 mps 654 mmHg 82%

    Day after tomorrow, 29 May, Tuesday

    Time Temperature Precipitation Wind Pressure Humidity
    00:00 +13°C° 0 mm 2 mps 653 mmHg 82%
    01:00 +13°C° 0 mm 1 mps 653 mmHg 81%
    02:00 +13°C° 0 mm 2 mps 653 mmHg 82%
    03:00 +13°C° 0 mm 2 mps 653 mmHg 82%
    04:00 +12°C° 0 mm 2 mps 653 mmHg 82%
    05:00 +14°C° 0 mm 1 mps 653 mmHg 78%
    06:00 +15°C° 0 mm 1 mps 653 mmHg 74%
    07:00 +18°C° 0 mm 1 mps 654 mmHg 71%
    08:00 +19°C° 0 mm 1 mps 654 mmHg 66%
    09:00 +21°C° 0 mm 1 mps 655 mmHg 60%
    10:00 +22°C° 0 mm 1 mps 655 mmHg 55%
    11:00 +21°C° 0.1 mm 2 mps 655 mmHg 55%
    12:00 +23°C° 0.1 mm 2 mps 654 mmHg 56%
    13:00 +22°C° 0.1 mm 3 mps 654 mmHg 56%
    14:00 +21°C° 0.6 mm 2 mps 654 mmHg 60%
    15:00 +20°C° 0.6 mm 2 mps 653 mmHg 64%
    16:00 +20°C° 0.6 mm 2 mps 653 mmHg 68%
    17:00 +19°C° 0.3 mm 1 mps 653 mmHg 73%
    18:00 +18°C° 0.3 mm 1 mps 652 mmHg 78%
    19:00 +16°C° 0.3 mm 1 mps 652 mmHg 82%
    20:00 +15°C° 0 mm 1 mps 652 mmHg 83%
    21:00 +15°C° 0 mm 1 mps 652 mmHg 84%
    22:00 +14°C° 0 mm 1 mps 652 mmHg 85%
    23:00 +14°C° 0 mm 1 mps 652 mmHg 86%

    30 May, Wednesday

    Time Temperature Precipitation Wind Pressure Humidity
    00:00 +13°C° 0 mm 1 mps 652 mmHg 86%
    01:00 +13°C° 0 mm 1 mps 651 mmHg 86%
    02:00 +13°C° 0 mm 1 mps 651 mmHg 86%
    03:00 +13°C° 0 mm 1 mps 651 mmHg 86%
    04:00 +12°C° 0 mm 1 mps 651 mmHg 86%
    05:00 +14°C° 0.1 mm 1 mps 651 mmHg 82%
    06:00 +15°C° 0.1 mm 1 mps 652 mmHg 78%
    07:00 +18°C° 0.1 mm 1 mps 652 mmHg 74%
    08:00 +19°C° 0.2 mm 1 mps 653 mmHg 71%
    09:00 +19°C° 0.2 mm 2 mps 653 mmHg 68%
    10:00 +20°C° 0.2 mm 2 mps 653 mmHg 65%
    11:00 +20°C° 0.5 mm 2 mps 653 mmHg 64%
    12:00 +21°C° 0.5 mm 2 mps 653 mmHg 64%
    13:00 +21°C° 0.5 mm 2 mps 653 mmHg 63%
    14:00 +21°C° 0.7 mm 2 mps 653 mmHg 65%
    15:00 +20°C° 0.7 mm 2 mps 653 mmHg 66%
    16:00 +20°C° 0.7 mm 2 mps 652 mmHg 68%
    17:00 +19°C° 0.1 mm 2 mps 652 mmHg 74%
    18:00 +18°C° 0.1 mm 1 mps 652 mmHg 79%
    19:00 +16°C° 0.1 mm 1 mps 652 mmHg 85%
    20:00 +15°C° 0.3 mm 1 mps 652 mmHg 86%
    21:00 +14°C° 0.3 mm 1 mps 652 mmHg 88%
    22:00 +14°C° 0.3 mm 1 mps 652 mmHg 90%
    23:00 +12°C° 0.1 mm 0 mps 651 mmHg 90%

    31 May, Thursday

    Time Temperature Precipitation Wind Pressure Humidity
    00:00 +12°C° 0.1 mm 0 mps 651 mmHg 90%
    01:00 +12°C° 0.1 mm 0 mps 651 mmHg 90%
    02:00 +11°C° 0 mm 0 mps 651 mmHg 90%
    03:00 +12°C° 0 mm 1 mps 651 mmHg 89%
    04:00 +12°C° 0 mm 1 mps 651 mmHg 88%
    05:00 +14°C° 0 mm 1 mps 651 mmHg 82%
    06:00 +15°C° 0 mm 1 mps 652 mmHg 75%
    07:00 +18°C° 0 mm 1 mps 652 mmHg 68%
    08:00 +19°C° 0 mm 1 mps 652 mmHg 63%
    09:00 +20°C° 0 mm 2 mps 653 mmHg 57%
    10:00 +21°C° 0 mm 2 mps 653 mmHg 52%
    11:00 +21°C° 0 mm 2 mps 653 mmHg 52%
    12:00 +22°C° 0 mm 3 mps 653 mmHg 52%
    13:00 +22°C° 0 mm 3 mps 653 mmHg 52%
    14:00 +22°C° 0.2 mm 3 mps 652 mmHg 56%
    15:00 +21°C° 0.2 mm 3 mps 652 mmHg 59%
    16:00 +21°C° 0.2 mm 2 mps 652 mmHg 62%
    17:00 +19°C° 0.2 mm 2 mps 652 mmHg 68%
    18:00 +18°C° 0.2 mm 1 mps 651 mmHg 75%
    19:00 +16°C° 0.2 mm 1 mps 651 mmHg 81%
    20:00 +15°C° 0 mm 1 mps 651 mmHg 82%
    21:00 +14°C° 0 mm 1 mps 651 mmHg 84%
    22:00 +13°C° 0 mm 1 mps 651 mmHg 85%
    23:00 +13°C° 0 mm 1 mps 651 mmHg 84%

    1 June, Friday

    Time Temperature Precipitation Wind Pressure Humidity
    00:00 +13°C° 0 mm 1 mps 651 mmHg 84%
    01:00 +12°C° 0 mm 1 mps 651 mmHg 83%
    02:00 +12°C° 0 mm 1 mps 650 mmHg 81%
    03:00 +12°C° 0 mm 1 mps 650 mmHg 79%
    04:00 +11°C° 0 mm 1 mps 650 mmHg 77%
    05:00 +13°C° 0 mm 1 mps 651 mmHg 72%
    06:00 +15°C° 0 mm 1 mps 651 mmHg 68%
    07:00 +18°C° 0 mm 1 mps 652 mmHg 63%
    08:00 +18°C° 0 mm 2 mps 652 mmHg 58%
    09:00 +19°C° 0 mm 3 mps 653 mmHg 54%
    10:00 +21°C° 0 mm 3 mps 653 mmHg 49%
    11:00 +21°C° 0 mm 4 mps 653 mmHg 48%
    12:00 +22°C° 0 mm 4 mps 653 mmHg 48%
    13:00 +22°C° 0 mm 5 mps 653 mmHg 47%
    14:00 +22°C° 0 mm 5 mps 652 mmHg 49%
    15:00 +22°C° 0 mm 5 mps 652 mmHg 51%
    16:00 +21°C° 0 mm 5 mps 652 mmHg 54%
    17:00 +19°C° 0 mm 4 mps 652 mmHg 61%
    18:00 +17°C° 0 mm 4 mps 651 mmHg 69%
    19:00 +14°C° 0 mm 3 mps 651 mmHg 77%
    20:00 +13°C° 0 mm 3 mps 651 mmHg 77%
    21:00 +13°C° 0 mm 3 mps 651 mmHg 78%
    22:00 +12°C° 0 mm 3 mps 651 mmHg 78%
    23:00 +13°C° 0 mm 2 mps 651 mmHg 76%
    Show more